Dean International
Flight School

Career Spotlight

Mika

Mika

Congratulations to Mika from Khazakstan. She recently sent us this photo of her flying an Airbus airliner.

More...
Mika's Success Story
close

Congratulations to Mika from Khazakstan. She recently sent us this photo of her flying an Airbus airliner.

Mario

Mario

My dreams could not have been realized if I wouldn't have been part of the Dean International family.

More...
Mario's Success Story
close

"My dreams could not have been realized if I wouldn't have been part of the Dean International family. Thank you Robert, thanks to all my co-workers, and thanks to all of my students!"

Fernando

Fernando

I am now working as a First Officer at TACA and am enjoying every moment of it.

More...
Fernando's Success Story
close

"Will never forget my time of flight training at Dean International. I am now working as a First Officer at TACA and am enjoying every moment of it."

Alvaro

Alvaro

Because of the flight time I was able to built while instructing, I got the experience needed to apply to an airline in Colombia.

More...
Alvaro's Success Story
close

Dean alumnus Alvaro Londoño currently flies with Tampa Cargo. He says of his experience at Dean: "I want to take this opportunity to thank you for giving me the chance to build my experience and expand my knowledge in Dean International. Because of the flight time I was able to built flight instructing, I got the experience needed to apply to an airline in Colombia."

Ralph

Ralph

Every Aruban student of Dean International has made it into Tiara Air Aruba, that is very nice.

More...
Ralph's Success Story
close

"Next to me is my Co-Pilot, Elison. This picture was taken on our first flight together, which was almost exactly 5 years after I finished at Dean International. [...] Every Aruban student of Dean International has made it into Tiara Air Aruba. [...] The future looks bright here in Aruba."

Rohaan

Rohaan

The [..] staff will all work diligently to help you finish your certificates as safely and efficiently as possible.

More...
Rohaan's Success Story
close

After receiving very hard times from other flight schools [...], I came to Dean International where Robert Dean personally sat down with me and gave me a financial and chronological look into how much remained to finish my private pilot certificate. Through his hard efforts as an instructor and mentor, I was able to finish my private pilot certificate within one week.

Welcome to Dean International

In over two decades, Dean International has educated over 7,000 pilots from all over the world, including over 1,000 students from India alone. By offering a great training experience, a friendly service staff, an ample variety of aircraft, and by improving constantly, we have become one of the largest, most prestigious FAA 141-approved flight schools in North America. Located in Miami, Florida, USA, our flight school offers an ideal location for year-round, "learn to fly" weather, flight training. Dean International is not only well-equipped to provide services to professional trainees but also caters to General Aviation renters. Visit or contact our headquarters at Kendall-Tamiami Executive Airport located in Miami, FL today to learn more about us, or simply read more about our programs if you are an international student interested in joining our school.

Local Airport Information
TAF FOR KTMB (Issued: Fri, July 25th 2014 12:24 PM UTC)
TAF KTMB 251122Z 2512/2612 VRB02KT P6SM FEW025 SCT250
      FM251600 12008KT P6SM SCT025 SCT050 BKN250
      FM260200 VRB04KT P6SM FEW030 SCT250
     
METAR FOR KTMB (Issued: Fri, July 25th 2014 11:53 AM UTC):
KTMB 251153Z 00000KT 10SM BR CLR 28/25 A3008 RMK AO2 SLP185 T02780250 10278 20244 53012

This weather information is provided by the National Weather Service.
It is automatically refreshed every three minutes.
TAF FOR KHST (Issued: Fri, July 25th 2014 8:06 AM UTC)
TAF KHST 2508/2614 13005KT 9999 FEW020 QNH3003INS
      BECMG 2512/2513 11005KT 9999 FEW020 BKN035 QNH3006INS
      TEMPO 2517/2521 14010G20KT 4800 -TSRA FEW010 BKN035CB BKN190
      BECMG 2521/2522 14005KT 9999 FEW020 QNH3002INS TX33/2519Z TN25/2510Z
     
METAR FOR KHST (Issued: Fri, July 25th 2014 11:58 AM UTC):
KHST 251158Z AUTO 35003KT 10SM CLR 27/24 A3008 RMK AO2 SLP189 70012 T02670241 10267 20249 51012

This weather information is provided by the National Weather Service.
It is automatically refreshed every three minutes.
TAF FOR KOPF (Issued: Fri, July 25th 2014 12:24 PM UTC)
TAF KOPF 251122Z 2512/2612 VRB04KT P6SM FEW030
      FM251600 13009KT P6SM SCT025 SCT050 SCT250
      FM260200 VRB04KT P6SM FEW030 SCT250
     
METAR FOR KOPF (Issued: Fri, July 25th 2014 11:53 AM UTC):
KOPF 251153Z 00000KT 10SM CLR 27/24 A3009 RMK AO2 SLP189 70011 T02670239 10267 20239 51015

This weather information is provided by the National Weather Service.
It is automatically refreshed every three minutes.
TAF FOR KMIA (Issued: Fri, July 25th 2014 12:27 PM UTC)
TAF KMIA 251122Z 2512/2612 VRB04KT P6SM FEW025 FEW250
      FM251600 12009KT P6SM SCT025 SCT050 BKN250
      FM260200 VRB04KT P6SM FEW025 SCT250
     
METAR FOR KMIA (Issued: Fri, July 25th 2014 11:53 AM UTC):
KMIA 251153Z 01003KT 10SM FEW020 FEW120 FEW250 28/24 A3009 RMK AO2 SLP188 CB DSNT NE AND SW-W TCU DSNT E 70013 T02830239 10283 20256 52013

This weather information is provided by the National Weather Service.
It is automatically refreshed every three minutes.
Design by Ariel Llizo
© Dean International Inc. 2012